Regional Weather Roundup
Issued by NWS

Home | Current Version | Previous Version | Graphics & Text | Print | Product List | Glossary On
Versions: 1 2 3 4 5 6 7 8 9 10 11 12 13 14 15 16 17 18 19 20 21 22 23 24 25 26 27 28 29 30 31 32 33 34 35 36 37 38 39 40 41 42 43 44 45 46 47 48 49 50
000
ASUS43 KLOT 180508
RWRIL

ILLINOIS REGIONAL WEATHER ROUNDUP
NATIONAL WEATHER SERVICE CHICAGO/ROMEOVILLE IL
1200 AM CDT SAT APR 18 2015

NOTE: "FAIR" INDICATES FEW OR NO CLOUDS BELOW 12,000 FEET WITH NO
SIGNIFICANT WEATHER AND/OR OBSTRUCTIONS TO VISIBILITY.

* THESE STATIONS ARE NOT UNDER NWS QUALITY CONTROL. THEY ALSO MAY NOT
  REPORT WEATHER SUCH AS PRECIPITATION OR FOG.

ILZ001-002-007-009-015-016-024-180600-
NORTHWEST ILLINOIS

CITY           SKY/WX    TMP DP  RH WIND       PRES   REMARKS
MOLINE         CLEAR     55  48  77 CALM      30.00S
STERLING*      CLEAR     55  46  71 CALM      30.01S
SAVANNA*       CLEAR     59  49  68 CALM      30.01R
$$

ILZ003-004-008-010-011-017-018-180600-
NORTH CENTRAL ILLINOIS

CITY           SKY/WX    TMP DP  RH WIND       PRES   REMARKS
ROCKFORD       CLEAR     60  50  69 CALM      30.03R
FREEPORT*      CLEAR     53  46  78 CALM      30.03R
ROCHELLE*      MOCLDY    57  46  66 CALM      30.02S
DE KALB*       CLOUDY    60  46  60 SW5       30.02S
PERU*          CLEAR     65  48  55 S3        30.02S
$$

ILZ005-006-012>014-019>023-180600-
NORTHEAST ILLINOIS

CITY           SKY/WX    TMP DP  RH WIND       PRES   REMARKS
CHICAGO-OHARE  PTCLDY    61  47  59 S3        30.00S
CHICAGO-MIDWAY PTCLDY    66  47  50 S5        30.01S
AURORA         MOCLDY    57  48  72 CALM      30.01S
LANSING*       CLEAR     58  46  64 CALM      30.01F
JOLIET*        MOCLDY    58  52  80 CALM      30.01S
WAUKEGAN       PTCLDY    48  43  82 S3        29.99F HAZE
DUPAGE AIRPORT MOCLDY    59  49  69 CALM      30.00S
KANKAKEE*      CLEAR     58  49  70 S6        30.04R
WHEELING       CLOUDY    59  47  64 CALM      30.01S
MORRIS*        MOCLDY    61  47  61 S5        30.00R
ROMEOVILLE*    MOCLDY    62  47  56 S6        30.01S
NORTHERLY ISL    N/A     60  45  57 SW2         N/A
$$

LMZ740>746-180600-
SOUTHERN LAKE MICHIGAN

STATION/POSITION SKY/WX   TEMP    WIND        PRES    VSBY  WAVE
                          AIR SEA DIR/SP/G                  HT/PER
                          (F)     (DEG/KT/KT) (MB)    (MI)  (FT/S)
HARRISON CRIB              60     170/  9/ 11   N/A
BURNHAM HARBOR             64     220/  2/  4   N/A
CALUMET HARBOR             61     200/  2/  2   N/A
MICHIGAN CITY              66     130/  7/  7   N/A
MICHIGAN CITY 6N           60 47                N/A           0
$$

ILZ025>027-034>036-040-047-049-050-058-095>099-180600-
WEST-CENTRAL ILLINOIS

CITY           SKY/WX    TMP DP  RH WIND       PRES   REMARKS
QUINCY         PTCLDY    67  52  58 S6        30.01S
GALESBURG*     MOCLDY    59  51  75 CALM      30.01S
MACOMB*        CLEAR     60  51  71 CALM      30.03S
JACKSONVILLE*  PTCLDY    62  54  74 SE5       30.02S
PITTSFIELD*    PTCLDY    65  54  65 CALM      30.03R
$$

ILZ028>032-037-038-041>044-048-051>054-059>061-180600-
CENTRAL ILLINOIS

CITY           SKY/WX    TMP DP  RH WIND       PRES   REMARKS
PONTIAC        MOCLDY    58  49  72 SE5       30.03S
BLOOMINGTON    PTCLDY    61  53  74 S6        30.05R
DECATUR        CLEAR     59  51  75 E7        30.04R
PEORIA         MOCLDY    67  53  61 CALM      30.01S
LACON*         CLOUDY    62  53  72 CALM      30.01R
LINCOLN*       CLEAR     61  51  68 S5        30.01S
SPRINGFIELD    CLEAR     63  53  70 S3        30.02S
TAYLORVILLE    CLEAR     59  54  82 SE3       30.03R
$$

ILZ033-039-045-046-055>057-062-063-180600-
EAST-CENTRAL ILLINOIS

CITY           SKY/WX    TMP DP  RH WIND       PRES   REMARKS
CHAMPAIGN      CLEAR     58  49  72 S6        30.04R
DANVILLE*      CLEAR     59  47  65 CALM      30.02R
RANTOUL*       MOCLDY    60  51  71 SE5       30.05R
MATTOON        CLEAR     58  52  80 CALM      30.03R
PARIS*         CLEAR     57  52  84 CALM      30.05R
$$

ILZ079-100>102-180600-
SOUTHWEST ILLINOIS

CITY           SKY/WX    TMP DP  RH WIND       PRES   REMARKS
ALTON          PTCLDY    60  57  89 SE5       30.02S
BELLEVILLE     CLEAR     60  59  99 CALM      30.02R
CAHOKIA*       CLEAR     61  57  87 SE5       30.02R
SPARTA*        CLEAR     64  57  77 CALM      30.05R
$$

ILZ064>066-069>071-074>076-080>082-084>086-088>090-092>094-180600-
SOUTH-CENTRAL ILLINOIS

CITY           SKY/WX    TMP DP  RH WIND       PRES   REMARKS
CARBONDALE     CLOUDY    63  59  87 CALM      30.03S
CAIRO*         CLEAR     61  61  99 CALM      30.03F
EFFINGHAM*     CLEAR     57  53  86 CALM      30.05S
MARION         CLOUDY    61  59  94 CALM      30.04S
MT. VERNON     CLEAR     55  52  88 CALM      30.05R
CENTRALIA*     CLEAR     56  54  92 CALM      30.04S
SALEM*         CLEAR     59  56  88 CALM      30.04S
METROPOLIS*    PTCLDY    64  64 100 CALM      30.03F
$$

ILZ067-068-072-073-078-083-087-091-180600-
SOUTHEAST ILLINOIS

CITY           SKY/WX    TMP DP  RH WIND       PRES   REMARKS
LAWRENCEVILLE  CLEAR     60  56  86 CALM      30.04R
FLORA*         CLEAR     58  55  91 CALM      30.04S
FAIRFIELD*     CLEAR     59  56  90 CALM      30.03S
HARRISBURG*    PTCLDY    62  60  93 CALM      30.05R
ROBINSON*      CLEAR     55  53  91 CALM      30.05S
CARMI*         CLEAR     58  53  85 CALM      30.03S HAZE
$$

ABBREVIATIONS USED IN REMARKS
   TC - TEMPERATURE IN CELSIUS
  WCI - WIND CHILL INDEX
   HX - HEAT INDEX
  VSB - VISIBILITY
$$



USA.gov is the U.S. government's official web portal to all federal, state and local government web resources and services.